• In Deutschland
  • Länderverzeichnis
  • Für 7 Tage
  • Wassertemperatur
  • Satellitenkarten
  • Wetterkarte
  • Widgets
  • user-avatar
    Anmelden

    Stündliche Wetter Balingen

    Heute, 17 Juli, Dienstag

    Zeit Temperatur Niederschläge Wind Luftdruck Luftfeuchtigkeit
    00:00 +16°C° 0 mm 1 m/S 714 mmHg 85%
    01:00 +16°C° 0 mm 1 m/S 715 mmHg 86%
    02:00 +16°C° 0,1 mm 1 m/S 715 mmHg 86%
    03:00 +15°C° 0,1 mm 1 m/S 715 mmHg 87%
    04:00 +15°C° 0,1 mm 1 m/S 715 mmHg 87%
    05:00 +16°C° 0 mm 1 m/S 715 mmHg 85%
    06:00 +19°C° 0 mm 1 m/S 716 mmHg 83%
    07:00 +20°C° 0 mm 1 m/S 716 mmHg 80%
    08:00 +20°C° 0,4 mm 2 m/S 716 mmHg 73%
    09:00 +23°C° 0,4 mm 2 m/S 716 mmHg 67%
    10:00 +25°C° 0,4 mm 2 m/S 717 mmHg 60%
    11:00 +26°C° 0,2 mm 2 m/S 717 mmHg 55%
    12:00 +26°C° 0,2 mm 3 m/S 717 mmHg 50%
    13:00 +27°C° 0,2 mm 3 m/S 717 mmHg 46%
    14:00 +27°C° 0 mm 2 m/S 717 mmHg 47%
    15:00 +27°C° 0 mm 2 m/S 717 mmHg 48%
    16:00 +27°C° 0 mm 2 m/S 717 mmHg 50%
    17:00 +26°C° 0 mm 2 m/S 717 mmHg 55%
    18:00 +25°C° 0 mm 2 m/S 717 mmHg 60%
    19:00 +24°C° 0 mm 1 m/S 717 mmHg 66%
    20:00 +22°C° 0,3 mm 1 m/S 717 mmHg 71%
    21:00 +20°C° 0,3 mm 1 m/S 717 mmHg 77%
    22:00 +18°C° 0,3 mm 1 m/S 717 mmHg 83%
    23:00 +18°C° 0,1 mm 1 m/S 717 mmHg 85%

    Morgen, 18 Juli, Mittwoch

    Zeit Temperatur Niederschläge Wind Luftdruck Luftfeuchtigkeit
    00:00 +16°C° 0,1 mm 1 m/S 717 mmHg 87%
    01:00 +16°C° 0,1 mm 1 m/S 717 mmHg 89%
    02:00 +16°C° 0 mm 1 m/S 717 mmHg 90%
    03:00 +15°C° 0 mm 1 m/S 717 mmHg 91%
    04:00 +15°C° 0 mm 1 m/S 717 mmHg 93%
    05:00 +16°C° 0 mm 1 m/S 717 mmHg 90%
    06:00 +18°C° 0 mm 1 m/S 717 mmHg 87%
    07:00 +19°C° 0 mm 1 m/S 717 mmHg 85%
    08:00 +21°C° 0 mm 1 m/S 718 mmHg 77%
    09:00 +23°C° 0 mm 1 m/S 718 mmHg 69%
    10:00 +25°C° 0 mm 1 m/S 718 mmHg 61%
    11:00 +26°C° 0 mm 1 m/S 718 mmHg 58%
    12:00 +26°C° 0 mm 1 m/S 718 mmHg 54%
    13:00 +27°C° 0 mm 1 m/S 718 mmHg 51%
    14:00 +27°C° 0 mm 1 m/S 717 mmHg 52%
    15:00 +27°C° 0 mm 2 m/S 717 mmHg 53%
    16:00 +26°C° 0 mm 2 m/S 717 mmHg 54%
    17:00 +26°C° 0 mm 2 m/S 717 mmHg 59%
    18:00 +25°C° 0 mm 2 m/S 717 mmHg 64%
    19:00 +24°C° 0 mm 1 m/S 717 mmHg 69%
    20:00 +22°C° 0 mm 1 m/S 717 mmHg 74%
    21:00 +20°C° 0 mm 1 m/S 717 mmHg 78%
    22:00 +18°C° 0 mm 1 m/S 717 mmHg 82%
    23:00 +18°C° 0 mm 1 m/S 717 mmHg 84%

    übermorgen, 19 Juli, Donnerstag

    Zeit Temperatur Niederschläge Wind Luftdruck Luftfeuchtigkeit
    00:00 +16°C° 0 mm 1 m/S 717 mmHg 86%
    01:00 +16°C° 0 mm 1 m/S 717 mmHg 87%
    02:00 +16°C° 0 mm 1 m/S 717 mmHg 89%
    03:00 +15°C° 0 mm 1 m/S 717 mmHg 90%
    04:00 +15°C° 0 mm 1 m/S 717 mmHg 91%
    05:00 +16°C° 0 mm 1 m/S 717 mmHg 87%
    06:00 +18°C° 0 mm 1 m/S 717 mmHg 84%
    07:00 +20°C° 0 mm 1 m/S 718 mmHg 80%
    08:00 +21°C° 0 mm 1 m/S 718 mmHg 73%
    09:00 +23°C° 0 mm 1 m/S 718 mmHg 65%
    10:00 +25°C° 0 mm 2 m/S 718 mmHg 58%
    11:00 +26°C° 0 mm 2 m/S 718 mmHg 56%
    12:00 +26°C° 0 mm 2 m/S 718 mmHg 53%
    13:00 +27°C° 0 mm 2 m/S 718 mmHg 50%
    14:00 +27°C° 0 mm 2 m/S 718 mmHg 51%
    15:00 +27°C° 0 mm 2 m/S 718 mmHg 52%
    16:00 +27°C° 0 mm 2 m/S 717 mmHg 52%
    17:00 +26°C° 0 mm 2 m/S 717 mmHg 58%
    18:00 +25°C° 0 mm 2 m/S 717 mmHg 64%
    19:00 +24°C° 0 mm 2 m/S 717 mmHg 69%
    20:00 +21°C° 0 mm 2 m/S 717 mmHg 73%
    21:00 +19°C° 0 mm 2 m/S 717 mmHg 78%
    22:00 +18°C° 0 mm 1 m/S 717 mmHg 82%
    23:00 +18°C° 0 mm 1 m/S 717 mmHg 83%

    20 Juli, Freitag

    Zeit Temperatur Niederschläge Wind Luftdruck Luftfeuchtigkeit
    00:00 +16°C° 0 mm 1 m/S 717 mmHg 83%
    01:00 +16°C° 0 mm 1 m/S 717 mmHg 84%
    02:00 +15°C° 0 mm 1 m/S 716 mmHg 84%
    03:00 +15°C° 0 mm 1 m/S 716 mmHg 84%
    04:00 +15°C° 0 mm 1 m/S 716 mmHg 85%
    05:00 +16°C° 0 mm 1 m/S 716 mmHg 81%
    06:00 +18°C° 0 mm 1 m/S 716 mmHg 78%
    07:00 +19°C° 0 mm 1 m/S 716 mmHg 74%
    08:00 +21°C° 0 mm 1 m/S 716 mmHg 68%
    09:00 +23°C° 0 mm 1 m/S 716 mmHg 61%
    10:00 +26°C° 0 mm 1 m/S 717 mmHg 54%
    11:00 +27°C° 0 mm 1 m/S 716 mmHg 52%
    12:00 +28°C° 0 mm 1 m/S 716 mmHg 49%
    13:00 +29°C° 0 mm 1 m/S 716 mmHg 46%
    14:00 +29°C° 0 mm 1 m/S 716 mmHg 48%
    15:00 +28°C° 0 mm 1 m/S 716 mmHg 50%
    16:00 +28°C° 0 mm 1 m/S 715 mmHg 52%
    17:00 +27°C° 0,4 mm 1 m/S 715 mmHg 60%
    18:00 +25°C° 0,4 mm 2 m/S 715 mmHg 68%
    19:00 +24°C° 0,4 mm 2 m/S 714 mmHg 76%
    20:00 +21°C° 0,5 mm 2 m/S 714 mmHg 79%
    21:00 +20°C° 0,5 mm 2 m/S 714 mmHg 81%
    22:00 +19°C° 0,5 mm 2 m/S 713 mmHg 84%
    23:00 +19°C° 0,6 mm 1 m/S 713 mmHg 86%

    21 Juli, Samstag

    Zeit Temperatur Niederschläge Wind Luftdruck Luftfeuchtigkeit
    00:00 +19°C° 0,6 mm 1 m/S 713 mmHg 87%
    01:00 +19°C° 0,6 mm 1 m/S 713 mmHg 89%
    02:00 +18°C° 1 mm 1 m/S 713 mmHg 90%
    03:00 +18°C° 1 mm 1 m/S 713 mmHg 92%
    04:00 +18°C° 1 mm 1 m/S 713 mmHg 94%
    05:00 +17°C° 0,7 mm 2 m/S 713 mmHg 94%
    06:00 +18°C° 0,7 mm 2 m/S 713 mmHg 93%
    07:00 +18°C° 0,7 mm 2 m/S 714 mmHg 93%
    08:00 +19°C° 0,6 mm 2 m/S 714 mmHg 91%
    09:00 +19°C° 0,6 mm 3 m/S 714 mmHg 90%
    10:00 +19°C° 0,6 mm 3 m/S 714 mmHg 88%
    11:00 +20°C° 0,6 mm 3 m/S 714 mmHg 85%
    12:00 +20°C° 0,6 mm 2 m/S 714 mmHg 82%
    13:00 +21°C° 0,6 mm 2 m/S 714 mmHg 79%
    14:00 +21°C° 0,5 mm 2 m/S 714 mmHg 78%
    15:00 +21°C° 0,5 mm 2 m/S 714 mmHg 77%
    16:00 +23°C° 0,5 mm 2 m/S 714 mmHg 75%
    17:00 +21°C° 0,6 mm 2 m/S 714 mmHg 78%
    18:00 +22°C° 0,6 mm 1 m/S 714 mmHg 81%
    19:00 +21°C° 0,6 mm 1 m/S 714 mmHg 84%
    20:00 +20°C° 0,5 mm 1 m/S 714 mmHg 86%
    21:00 +19°C° 0,5 mm 1 m/S 715 mmHg 88%
    22:00 +16°C° 0,5 mm 1 m/S 715 mmHg 91%
    23:00 +16°C° 0,1 mm 1 m/S 715 mmHg 91%

    22 Juli, Sonntag

    Zeit Temperatur Niederschläge Wind Luftdruck Luftfeuchtigkeit
    00:00 +16°C° 0,1 mm 1 m/S 715 mmHg 92%
    01:00 +15°C° 0,1 mm 1 m/S 715 mmHg 92%
    02:00 +15°C° 0,1 mm 1 m/S 715 mmHg 92%
    03:00 +15°C° 0,1 mm 1 m/S 715 mmHg 92%
    04:00 +15°C° 0,1 mm 1 m/S 715 mmHg 92%
    05:00 +16°C° 0,2 mm 1 m/S 716 mmHg 90%
    06:00 +16°C° 0,2 mm 0 m/S 716 mmHg 88%
    07:00 +17°C° 0,2 mm 0 m/S 717 mmHg 86%
    08:00 +20°C° 0,5 mm 1 m/S 717 mmHg 80%
    09:00 +22°C° 0,5 mm 1 m/S 717 mmHg 74%
    10:00 +23°C° 0,5 mm 1 m/S 717 mmHg 68%
    11:00 +24°C° 0,4 mm 1 m/S 717 mmHg 64%
    12:00 +24°C° 0,4 mm 1 m/S 717 mmHg 61%
    13:00 +25°C° 0,4 mm 2 m/S 717 mmHg 58%
    14:00 +25°C° 0,2 mm 2 m/S 717 mmHg 58%
    15:00 +25°C° 0,2 mm 2 m/S 717 mmHg 58%
    16:00 +25°C° 0,2 mm 2 m/S 717 mmHg 58%
    17:00 +24°C° 0,1 mm 2 m/S 717 mmHg 63%
    18:00 +23°C° 0,1 mm 1 m/S 717 mmHg 68%
    19:00 +23°C° 0,1 mm 1 m/S 717 mmHg 72%
    20:00 +21°C° 0 mm 1 m/S 718 mmHg 75%
    21:00 +17°C° 0 mm 0 m/S 718 mmHg 78%
    22:00 +15°C° 0 mm 0 m/S 718 mmHg 82%
    23:00 +15°C° 0 mm 0 m/S 718 mmHg 82%
    Mehr zeigen